STARLINK-35535, 66342

Orbit data source: Space-Track

STARLINK-35535, 66342 is a payload satellite owned by SpaceX/Seattle (US) in LEO that was launched on Thu, 06 Nov 2025 UTC via an FALCON 9 launch vehicle from the Air Force Eastern Test Range (AFETR). Payload-class satellites include a variety of spacecraft equipped with specific instruments for various scientific and technological missions. These include communications satellites like Starlink; space stations such as the ISS; scientific satellites like the Hubble; Earth observation satellites from companies like Planet Labs, Umbra, and HawkEye 360; GPS; miniature CubeSats for education and research; and military/defense satellites.

Loading next visibility...
Identifier
66342, 2025-253Z
Orbit
LEO
Country
Flag of USUS
Related business
Manufacturer
SpaceX/Seattle
Mission
Operational Commercial Communications
Bus & Motor
STARLINK V2MO, Unknown motor
Mass
575 kg wet, ~530 kg dry
Launch date (UTC)
2025-11-06 (7 months ago)
Launch vehicle
FALCON 9
Launch site
Air Force Eastern Test Range (AFETR)
Object type
Payload
Rocket body
Debris
Shape & HBR
Box + 2 Pan, 17.7 m
Radar Cross Section
36.964 m², Large (>1 m²)

Expand to show TLE details & history
Last TLE update: 16 hours ago

TLE from 16 hours ago
0 STARLINK-35535
1 66342U 25253Z   26170.56287904  .00016263  00000-0  59888-3 0  9994
2 66342  43.0038 357.2668 0001524 220.6214 139.4524 15.27597583 35825
Epoch: 2026-06-19T13:30Z
TLE epoch observation values (Epoch: 2026-06-19T13:30:32.749Z)
Latitude
-0.00001°
Longitude
-113.15973°
Altitude
483.567 km
Speed
7.625 km/s
True Right ascension
23h 49m 04s
True Declination
0° 00' 00"
Sunlit
Object was in daylight at epoch
Visualization orbit readout
Latitude
Unknown
Longitude
Unknown
Altitude
Unknown
Speed
Unknown
Apparent Right ascension
Unknown
Apparent Declination
Unknown
Sunlit
N/A
Visualization observer readout
Local Sidereal Time
16:03:09
Azimuth
Unknown
Elevation
Unknown
Doppler factor
Unknown
Orbital elements
Apogee altitude
485.987 km
Perigee altitude
483.895 km
Semi-major axis
6,863.078 km
Eccentricity
0.00015
Inclination
43.0038°
RAAN
357.2668°
Arg. of periapsis
220.6214°
True anomaly
139.46375°
Mean anomaly
139.4524°
Eccentric anomaly
139.45808°
Mean motion
3.81737 °/min
Orbital period
94.31 mins
BSTAR
0.00059888
Loading maneuver chart data...
Computing Atmospheric mass density...
Loading historical data...
Loading historical data...
Loading historical data...
Loading historical data...
Loading historical data...
Loading historical data...
Loading historical data...

Documentation

Showing up to 5 results
|